Orbital Elements at Epoch 2459200.5 (2020-Dec-17.0) TDB
Reference: JPL 25 (heliocentric ecliptic J2000)
Element | Value | Uncertainty (1-sigma) | Units |
e | .2225307085980245 | 3.5319e-08 | |
a | 2.367028960599045 | 6.922e-09 | au |
q | 1.840292328724894 | 8.5104e-08 | au |
i | 6.833036524733416 | 3.1651e-06 | deg |
node | 124.5875070327584 | 3.5068e-05 | deg |
peri | 208.2457724053496 | 3.586e-05 | deg |
M | 337.2463766177059 | 9.1024e-06 | deg |
tp | 2459284.572090941012 (2021-Mar-11.07209094) | 3.379e-05 | TDB |
period | 1330.159695018772 3.64 | 5.8348e-06 1.597e-08 | d yr |
n | .2706441950903642 | 1.1872e-09 | deg/d |
Q | 2.893765592473196 | 8.4624e-09 | au |
|
| | Orbit Determination Parameters
Additional Information
|